Regional Weather Roundup
Issued by NWS Upton, NY

Current Version | Previous Version | Text Only | Print | Product List | Glossary On
Versions: 1 2 3 4 5 6 7 8 9 10 11 12 13 14 15 16 17 18 19 20 21 22 23 24 25 26
000
ASUS41 KOKX 260805
RWROKX

Regional Weather Roundup
National Weather Service New York NY
400 AM EDT SAT MAY 26 2018

Note: "FAIR" indicates few or no clouds below 12,000 feet with no
significant weather and/or obstructions to visibility.

NYZ071-072-176-178-NJZ106-104-260900-
New York City Metro Area

CITY           SKY/WX    TMP DP  RH WIND       PRES   REMARKS
Central Park   FAIR      73  64  73 VRB7G18   29.85S
Bronx Bot Gard   N/A     73  63  68 SW12      29.85S
Bronx Lehman C   N/A     73  64  73 W7          N/A
LaGuardia Arpt FAIR      75  63  66 SW8       29.81F
Queens College   N/A     73  64  73 SW9         N/A
Kennedy Intl   FAIR      69  65  86 SW9       29.84S
Breezy Point     N/A     66 N/A N/A W7          N/A
Brooklyn Coll    N/A     72  63  73 SW9         N/A
Staten Island    N/A     72  63  73 SW7         N/A
Newark/Liberty FAIR      72  64  76 SW7       29.82F
Teterboro      FAIR      72  65  78 SW6       29.81F
$$

NYZ177-179-078>081-260900-
Long Island New York

CITY           SKY/WX    TMP DP  RH WIND       PRES   REMARKS
Jones Beach      N/A     64 N/A N/A SW5         N/A
Wantagh          N/A     66  61  82 S5          N/A
Hempstead        N/A     72  64  78 SW5       29.85F
Matinecock Pt    N/A     70 N/A N/A SW14        N/A
Farmingdale    FAIR      69  62  78 SW8       29.83S
MacArthur/ISP  FAIR      65  62  90 SW8       29.82F
Stony Brook      N/A     68  63  83 SW1         N/A
Shirley        FAIR      66  62  87 S6        29.83F
Mt Sinai Harb    N/A     70 N/A N/A SW7G13      N/A
Westhampton    FAIR      63  58  83 SW7       29.84F
East Hampton   FAIR      64  59  85 SW8       29.81F
Southold         N/A     70  63  78 SW7G18      N/A
Montauk          N/A     65  60  84 SW6       29.82S
$$

NYZ052-065-067-260900-
Hudson Valley

CITY           SKY/WX    TMP DP  RH WIND       PRES   REMARKS
White Plains   FAIR      72  64  76 VRB5      29.82S
Larchmont Harb   N/A     72 N/A N/A SW14        N/A
Croton On Huds   N/A     73 N/A N/A S5          N/A
Somers           N/A     72  63  73 SW5         N/A
Brewster         N/A     61  59  94 CALM        N/A
Newburgh       NOT AVBL
Montgomery     FAIR      67  62  84 W3        29.81R
Otisville        N/A     68  63  83 W3          N/A
Warwick          N/A     70  66  88 W8          N/A
Suffern          N/A     72  64  78 SW3         N/A
Poughkeepsie   FAIR      68  60  75 CALM      29.79S
Albany         FAIR      62  52  69 S3        29.76S
$$

NJZ001-105-106-008-010-013-015-019>022-104-260900-
New Jersey

CITY           SKY/WX    TMP DP  RH WIND       PRES   REMARKS
Newark/Liberty FAIR      72  64  76 SW7       29.82F
Teterboro      FAIR      72  65  78 SW6       29.81F
Caldwell       FAIR      71  65  81 S6        29.83S
Somerville     FAIR      63  62  97 CALM      29.82F
Linden         FAIR      72  63  72 CALM      29.84S
Perth Amboy      N/A     70 N/A N/A W6          N/A
Sussex         FAIR      66  63  90 SW3       29.83S
Andover          N/A     64  63  96 CALM      29.84F
Trenton        FAIR      72  64  76 SW5       29.84F
Millville      FAIR     N/A N/A N/A CALM      29.87F
Atlantic City  FAIR      72  67  84 SW7       29.87F
Wrightstown    FAIR      68  63  85 SW6       29.83F
Toms River     FAIR      68  63  84 SW10      29.86F
Belmar         FAIR      70  63  78 SW9       29.86F
$$

PAZ047>061-062-071-260900-
Eastern Pennsylvania

CITY           SKY/WX    TMP DP  RH WIND       PRES   REMARKS
Philadelphia   FAIR      71  64  78 SW7       29.86S
Allentown      FAIR      67  62  84 CALM      29.84F
Scranton       FAIR      69  63  81 SW3       29.84F
$$

CTZ002-004>006-009-010-012-RIZ004-006-007-MAZ004-011-015-260900-
Southern New England

 In CT

CITY           SKY/WX    TMP DP  RH WIND       PRES   REMARKS
Bradley Intl   FAIR      65  59  81 CALM      29.77R
Hartford       FAIR      68  61  78 S7        29.77R
Danbury        FAIR      70  63  78 SW7       29.81F
Wtrbury/Oxford FAIR      69  62  78 W5        29.82F
Norwalk Harbor   N/A     66 N/A N/A SW15        N/A
Bridgeport     FAIR      65  60  84 SW7       29.80F
Meriden        FAIR      61  58  90 CALM      29.79S
New Haven      FAIR      67  61  81 SW8       29.80S
Chester        FAIR      66  63  88 SW8       29.80F
Groton         FAIR      67  61  81 W9G20     29.79S
Willimantic    FAIR      63  59  87 CALM      29.78S

 In RI

CITY           SKY/WX    TMP DP  RH WIND       PRES   REMARKS
Providence     FAIR      70  59  68 SW10      29.77S
Block Island   FAIR      59  57  93 SW20G25   29.81F
Westerly       FAIR      66  61  84 W10       29.80S

In MA

CITY           SKY/WX    TMP DP  RH WIND       PRES   REMARKS
Boston         FAIR      73  56  54 W13G22    29.71S
Worcester      FAIR      66  55  67 W16       29.76F
Westfield      FAIR      61  58  90 S3        29.76S
Provincetown   FAIR      59  56  89 SW15      29.74S
Nantucket      FAIR      57  56  96 SW20      29.80F
$$

ANZ330-335-338-340-345-350-353-355-260900-
Coastal Marine Observations


STATION/POSITION TIME  SKY/WX   TEMP    WIND        PRES    VSBY  WAVE
                                AIR SEA DIR/SP/G                  HT/PER
                 (UTC)          (F)     (DEG/KT/KT) (MB)    (MI)  (FT/S)
NY Harb Entrance 0750            62 59  200/ 10/ 12 1010.3          3/ 6
20 S Fire Island 0750            59 54  220/ 14/ 16 1010.5          4/ 6
23 SSW Montauk P 0750            58 54  230/ 16/ 16 1010.2          5/ 6
15 E Barnegat Li 0730               59                N/A           4/ 5
Hudson Canyon    0750            59 53  220/ 16/ 17 1011.4          4/ 5
Kings Point      0748               62                N/A
Execution Rocks  NOT AVBL
Western LI Sound 0720            65     230/  8/ 10   N/A           0
Central LI Sound 0745            64     220/ 14/ 16   N/A           1
Robbins Reef     0748            73     250/ 12/ 13 1010.7
$$


>>>>>>>>>>>>>>>>>>>>>>>>>>>> KEY <<<<<<<<<<<<<<<<<<<<<<<<<<<
>                                                          <
>     SKY/WX - Sky Condition/Present Weather               <
>     TMP    - Temperature in Fahrenheit                   <
>     DP     - Dew Point in Fahrenheit                     <
>     RH     - Relative Humidity in Percent                <
>     WIND   - Direction (from) and Speed in MPH           <
>     PRES   - Mean Sea Level Pressure (inches of Hg)      <
>     WCI    - Wind Chill Index                            <
>     VSB    - Visibility in Miles                         <
>     HX     - Heat Index                                  <
>     TC     - Temperature in Celsius                      <
>     VRB    - Varibale Wind Direction                     <
>                                                          <
>>>>>>>>>>>>>>>>>>>>>>>>>>>> KEY <<<<<<<<<<<<<<<<<<<<<<<<<<<




USA.gov is the U.S. government's official web portal to all federal, state and local government web resources and services.